Temperature
15 14 14 13 13 13 13 13 12 12 12 12 12 12 12 12 11 10 10 9 9 9 8 8 8 8 8 8 9 9 9 9 10 10 10 10 10 10 10 10 10 10 10
15 14 14 13 13 13 12 12 12 12 12 12 12 12 12 12 11 10 10 9 9 8 8 8 8 8 8 8 8 8 8 9 9 9 9 9 9 9 9 9 9 10 10
15 14 14 13 13 13 12 12 12 12 12 12 12 12 12 11 10 10 9 9 8 8 8 8 8 8 8 8 7 8 8 8 8 8 8 8 8 8 8 8 8 8 8
15 14 14 13 13 12 12 12 11 11 11 12 12 12 11 11 10 9 9 8 8 8 7 7 7 7 7 7 7 7 7 7 7 7 7 7 7 7 7 7 7 7 7
14 14 13 13 12 12 12 11 11 11 11 11 11 11 11 10 10 9 9 8 8 7 7 7 7 7 7 7 7 7 7 7 7 6 6 6 6 6 6 6 6 6 6
15 14 13 13 12 12 11 11 11 11 11 11 11 11 11 10 10 9 8 8 7 7 7 7 7 7 7 7 7 7 6 6 6 6 5 5 5 4 4 4 4 4 4
15 14 14 13 12 12 12 11 11 11 11 11 11 10 10 10 9 9 8 8 8 7 7 7 7 7 6 6 6 6 6 6 5 5 4 4 3 3 2 2 2 3 3
15 15 14 14 13 12 12 11 11 11 11 11 11 11 10 10 10 9 9 8 8 7 7 6 6 6 6 6 5 5 5 5 5 4 3 2 2 2 1 1 1 2 2
16 15 15 14 14 13 12 12 11 11 11 11 11 11 11 11 10 9 9 8 8 7 7 6 6 6 5 5 5 5 5 4 4 3 2 1 1 1 1 1 1 1 1
16 16 15 15 14 13 13 12 12 11 11 11 11 11 11 11 10 10 9 9 8 7 7 6 6 5 5 5 5 4 4 4 3 3 2 1 1 0 0 0 0 0 0
16 16 15 15 14 14 13 13 12 11 11 11 11 11 10 10 10 10 9 9 8 7 6 6 5 5 4 4 4 4 3 3 3 2 2 0 -0 -0 -1 -1 -1 -1 -1
15 15 15 15 15 14 14 13 12 12 11 11 11 11 11 10 10 10 9 9 8 7 6 5 5 4 4 4 3 3 3 2 2 2 1 -0 -1 -1 -1 -1 -2 -2 -2
15 15 15 15 15 14 14 13 12 11 11 11 10 10 10 9 9 9 8 8 7 6 6 5 5 4 4 3 2 1 1 1 1 1 1 -0 -1 -1 -2 -2 -3 -3 -3
15 15 15 15 15 14 13 12 11 11 10 10 9 9 9 8 8 8 7 7 6 5 5 5 5 4 3 2 1 0 0 0 0 0 -0 -0 -1 -1 -2 -3 -3 -4 -4
14 14 14 14 14 14 13 12 11 10 9 9 8 8 8 7 7 6 6 5 4 3 3 4 3 2 1 1 -0 -1 -1 -1 -1 -1 -1 -1 -2 -2 -3 -3 -4 -4 -4
13 13 13 13 13 13 12 11 10 9 8 7 7 7 6 6 5 4 4 3 2 2 1 1 1 1 0 -0 -1 -1 -2 -2 -2 -2 -2 -3 -3 -3 -4 -4 -4 -4 -5
11 11 12 12 11 11 10 10 9 8 7 6 5 5 4 4 3 3 2 2 1 0 -0 -0 -0 -1 -1 -1 -1 -2 -2 -3 -3 -3 -3 -3 -4 -4 -4 -5 -5 -5 -5
10 10 10 10 10 10 9 8 7 6 5 5 4 4 3 2 2 1 0 -0 -1 -1 -2 -2 -2 -2 -2 -2 -3 -3 -4 -4 -4 -4 -4 -4 -4 -4 -4 -5 -5 -5 -5
9 9 9 9 9 8 8 6 5 4 4 3 3 3 2 1 0 -0 -1 -1 -2 -2 -3 -3 -3 -4 -4 -4 -4 -5 -5 -5 -4 -4 -4 -4 -4 -5 -5 -5 -5 -5 -5
8 8 8 8 7 6 5 4 3 3 3 3 2 2 1 0 -0 -1 -2 -2 -3 -3 -4 -4 -5 -5 -5 -5 -6 -7 -6 -6 -5 -5 -4 -5 -5 -5 -5 -5 -5 -5 -5
7 7 7 6 5 3 3 3 3 3 2 2 2 1 0 -1 -1 -2 -2 -3 -4 -4 -5 -6 -6 -7 -7 -7 -7 -8 -8 -7 -6 -5 -5 -5 -5 -5 -4 -5 -5 -5 -5
5 5 4 3 2 2 2 2 2 2 2 1 1 -0 -1 -2 -2 -3 -3 -4 -5 -5 -6 -7 -7 -8 -8 -8 -8 -8 -8 -8 -8 -7 -7 -6 -6 -5 -5 -5 -5 -5 -5
2 2 1 1 1 1 1 1 1 1 1 0 -0 -1 -2 -2 -3 -3 -4 -4 -5 -5 -7 -8 -8 -8 -8 -8 -9 -9 -9 -9 -9 -8 -8 -7 -6 -6 -6 -6 -5 -5 -5
0 0 0 0 1 1 1 1 1 0 -0 -1 -2 -2 -3 -3 -4 -4 -5 -5 -6 -6 -7 -8 -8 -8 -9 -9 -9 -9 -9 -9 -8 -7 -7 -8 -6 -6 -6 -6 -5 -5 -5
-0 -0 -0 0 0 0 0 -0 -0 -1 -2 -2 -3 -3 -4 -4 -4 -5 -7 -8 -8 -7 -8 -8 -8 -8 -8 -8 -8 -8 -8 -8 -8 -7 -7 -8 -7 -7 -7 -5 -5 -5 -5
-0 -0 -0 -0 -0 -1 -1 -1 -2 -2 -3 -3 -4 -4 -5 -5 -6 -7 -8 -9 -8 -8 -8 -7 -7 -7 -7 -7 -8 -8 -8 -9 -9 -9 -8 -8 -8 -9 -9 -7 -6 -6 -6
Wind_Speed
6 7 7 8 9 9 9 8 8 8 7 7 7 8 8 9 11 12 12 13 13 11 10 9 9 9 9 9 9 10 10 10 10 11 11 12 12 12 12 13 13 12 12
10 8 7 7 8 10 10 9 8 7 6 6 6 7 7 8 10 11 12 12 12 11 9 9 9 9 9 9 9 9 9 9 9 10 10 11 11 11 12 12 12 12 12
13 10 7 7 9 12 12 10 9 7 5 5 4 5 6 7 8 9 10 11 10 10 9 9 9 9 9 9 9 8 8 8 8 8 9 9 10 10 11 12 12 12 12
16 12 8 7 12 13 11 6 5 5 4 4 4 3 4 5 6 7 8 8 8 7 7 7 7 7 7 8 8 8 7 7 7 7 7 8 9 9 10 11 12 12 12
18 14 9 10 14 10 7 6 4 4 4 4 4 3 2 3 4 5 5 5 5 5 4 5 5 5 5 6 7 7 7 6 6 6 7 7 8 9 10 11 12 13 13
19 16 10 12 13 8 7 6 5 3 4 5 5 4 2 1 2 3 3 3 3 3 3 3 3 3 4 5 6 7 7 7 6 6 7 8 9 10 11 12 13 14 14
19 15 9 10 11 11 11 10 6 5 3 4 4 3 2 2 1 2 3 3 3 4 4 3 2 2 3 5 6 7 8 8 8 8 8 10 10 11 12 14 15 15 16
18 16 13 13 12 10 11 10 7 5 3 4 4 4 2 1 2 0 1 3 3 5 5 4 3 2 3 4 5 7 7 8 9 10 11 12 13 14 15 16 17 17 18
18 16 15 13 13 13 13 13 11 9 6 4 3 4 5 6 3 1 1 1 3 3 4 4 3 3 3 4 5 6 7 8 9 12 13 14 15 17 18 19 19 19 19
17 18 16 15 15 13 14 14 12 7 8 5 3 1 2 4 4 3 2 1 2 3 3 2 3 4 6 7 7 7 8 9 11 13 15 17 18 20 20 21 21 21 21
13 15 16 14 15 13 14 14 13 9 7 7 6 4 3 2 2 4 3 3 2 2 2 2 4 5 6 7 7 9 10 11 13 15 18 20 21 22 23 23 23 23 22
10 13 13 13 14 12 14 13 14 14 9 8 6 5 5 4 4 4 3 3 3 2 2 2 4 6 6 5 6 10 12 13 16 18 20 22 23 23 24 24 23 23 23
10 15 15 14 13 12 11 11 11 12 10 11 8 5 4 4 4 4 4 3 1 1 2 2 4 6 6 3 8 12 12 15 18 20 22 23 23 23 23 23 23 24 24
14 14 15 13 12 12 12 11 9 8 8 9 8 7 6 4 3 4 4 4 2 2 2 4 1 4 5 2 9 13 12 16 20 22 22 22 22 22 22 23 23 24 24
7 10 11 11 11 11 12 12 9 9 9 8 8 8 6 4 4 4 3 4 4 3 4 3 2 2 5 5 10 11 11 17 21 21 22 22 22 22 23 24 24 24 25
8 11 11 12 12 12 12 10 10 10 11 9 8 9 7 4 4 3 3 2 2 4 4 3 4 3 5 8 12 13 15 19 20 21 21 22 23 24 24 24 24 25 25
10 12 13 13 13 12 12 11 11 12 12 11 9 9 7 5 3 3 2 2 2 3 5 4 3 3 4 6 11 14 15 16 16 20 23 23 23 24 24 24 25 25 25
11 12 13 13 13 13 13 14 14 13 12 11 9 8 6 4 3 2 2 2 3 4 5 6 3 3 6 7 7 8 13 15 16 21 23 23 23 24 23 24 24 25 26
11 12 13 13 13 13 14 14 14 13 12 10 9 7 5 4 3 2 2 3 3 4 5 5 5 4 5 5 6 7 9 11 16 18 21 22 22 22 23 24 26 27 28
13 13 13 14 14 14 14 14 14 14 12 10 8 7 5 3 3 3 3 5 5 5 5 5 6 6 6 6 5 6 9 6 9 14 19 19 20 22 24 27 28 29 29
14 14 15 15 14 13 13 14 13 13 11 10 7 5 3 2 2 3 4 5 5 5 5 5 6 6 6 5 6 6 11 9 9 9 8 8 11 13 19 25 26 27 28
14 15 15 15 14 12 19 19 14 11 9 8 6 4 2 1 1 3 6 7 7 6 5 4 5 7 8 7 8 9 10 12 8 4 5 10 9 12 12 17 25 28 29
14 14 14 15 15 17 20 19 16 10 8 6 5 4 2 1 2 3 6 9 9 12 12 8 8 8 9 9 10 11 11 12 13 8 10 15 10 13 11 20 27 29 31
12 13 13 13 13 15 18 18 15 9 7 6 4 3 1 2 3 6 6 5 6 7 10 8 8 10 10 10 10 11 11 10 10 9 8 11 12 13 13 13 25 29 30
11 11 11 11 12 12 15 14 12 6 6 4 3 2 1 3 8 10 6 5 6 7 11 16 17 17 20 21 18 9 7 8 12 10 5 5 6 8 11 12 16 22 23
10 10 10 9 9 7 10 11 10 5 4 2 1 1 4 6 10 11 5 4 6 7 7 8 9 13 13 15 17 7 5 8 8 7 4 4 5 6 8 6 7 9 15
Wind_Direction
171 169 164 160 155 151 145 136 128 120 111 108 117 122 115 110 105 101 101 105 107 107 102 94 84 75 67 61 56 50 45 41 38 35 34 32 30 27 24 22 18 15 11
178 176 171 166 163 162 156 148 140 130 119 117 113 121 122 118 114 109 106 107 109 110 107 98 87 76 64 55 50 44 40 37 33 31 29 27 24 21 18 15 11 7 4
184 181 179 175 171 162 150 138 128 120 114 110 107 119 127 128 125 120 118 115 113 112 113 106 93 79 64 52 43 36 32 30 27 25 22 19 16 13 10 6 1 356 352
188 183 182 180 169 160 151 142 134 116 117 122 122 122 131 140 138 136 133 131 126 121 119 114 100 80 61 45 34 27 22 17 15 13 10 6 4 2 359 355 351 346 340
189 184 184 177 167 160 157 152 140 133 140 138 130 113 124 149 159 157 156 154 148 142 131 120 104 80 52 30 17 9 5 360 353 350 349 346 344 343 343 341 340 336 330
189 184 180 173 167 162 161 155 139 115 127 137 117 90 69 136 169 183 190 188 190 181 164 136 111 66 33 8 354 344 338 335 331 324 324 324 325 325 326 327 326 324 320
188 184 178 173 174 176 174 160 137 129 128 141 114 89 37 37 176 207 206 201 206 198 181 160 126 60 11 355 344 329 322 317 314 312 308 309 310 311 313 315 315 315 312
188 188 180 180 181 174 167 167 150 140 141 168 145 133 154 301 271 217 217 200 192 174 167 156 126 60 15 360 347 337 327 318 310 307 303 301 302 304 306 306 307 306 305
189 190 186 180 181 179 181 180 170 156 155 180 192 155 158 203 210 267 291 188 175 161 159 148 120 86 65 46 23 3 349 332 315 307 304 302 302 301 302 302 303 302 301
191 191 186 183 183 185 184 185 178 166 149 157 171 154 130 143 153 185 262 247 192 180 173 152 132 116 97 74 46 20 1 342 324 314 309 306 303 301 300 300 300 299 299
194 192 188 187 187 188 186 182 178 174 164 160 159 152 131 87 113 148 192 222 236 216 205 191 172 145 115 78 43 11 354 339 326 316 309 304 302 300 299 298 299 298 297
196 195 190 190 189 188 187 185 182 180 173 160 159 156 154 156 173 160 162 182 209 243 249 222 183 166 143 79 29 359 348 335 324 315 308 304 301 300 299 298 297 296 294
200 199 194 193 191 188 182 175 175 178 169 163 160 154 142 138 139 140 135 142 178 291 301 250 191 179 166 61 6 350 343 330 319 312 306 302 301 300 299 297 294 293 292
206 198 194 191 184 176 172 167 165 164 157 152 145 135 127 118 114 123 134 132 137 294 298 270 234 202 195 332 342 338 327 318 313 308 305 303 302 299 297 294 293 291 290
190 179 177 173 168 164 162 159 157 150 141 131 125 117 109 100 91 91 106 128 151 209 261 270 265 233 231 296 322 318 307 310 309 307 304 301 298 297 295 293 291 290 289
160 158 160 158 155 152 151 146 140 134 126 116 114 109 97 93 91 86 98 105 134 175 237 259 253 256 271 293 303 310 304 307 308 305 301 299 298 296 294 292 291 290 289
155 157 155 151 149 146 143 137 132 128 120 112 107 107 100 99 103 105 107 132 164 175 235 265 261 273 280 282 293 296 297 293 291 301 301 298 296 295 293 293 291 290 288
150 148 145 143 141 139 136 133 127 121 117 114 108 108 110 117 124 141 164 194 207 207 224 261 269 272 267 273 275 282 295 297 294 298 300 299 298 296 295 293 291 290 288
135 135 135 135 133 130 127 123 119 114 110 110 112 114 119 127 146 176 202 224 234 236 223 245 267 257 265 273 280 281 283 286 292 296 298 298 297 295 294 294 294 293 291
125 123 122 121 121 120 118 116 113 110 108 106 105 105 114 138 179 210 226 232 237 245 243 250 265 267 265 267 268 284 296 285 291 294 291 291 291 294 294 294 293 291 289
113 114 114 112 112 112 115 114 111 111 110 106 101 99 103 121 227 229 235 232 228 238 248 256 269 276 277 282 285 286 298 298 286 277 277 274 280 282 285 287 289 288 286
107 109 111 111 108 109 113 112 111 107 107 109 108 100 95 88 336 311 294 285 266 253 252 249 265 276 282 281 285 290 295 302 299 267 280 290 283 286 284 281 285 287 287
103 104 105 107 107 112 111 108 106 105 104 105 109 111 104 70 9 305 296 295 292 291 288 282 280 279 283 283 284 287 285 286 289 289 295 293 285 284 283 284 288 289 290
102 103 104 105 106 110 109 107 106 104 106 111 116 123 145 268 288 284 261 263 264 273 282 282 264 269 272 275 272 284 292 293 285 281 275 284 288 285 285 280 285 286 287
99 99 101 102 102 106 109 111 111 111 109 112 124 155 230 267 296 304 295 272 274 275 291 295 296 298 301 304 305 303 300 302 300 296 268 264 282 289 289 280 275 280 284
96 93 89 88 96 103 116 119 121 113 113 120 134 273 302 302 303 307 297 279 284 282 283 295 303 303 298 296 301 292 276 286 293 295 259 258 283 306 300 268 257 268 279
Height
1540 1542 1544 1546 1547 1549 1550 1551 1552 1552 1553 1553 1552 1552 1551 1551 1551 1551 1551 1550 1550 1550 1550 1549 1549 1549 1549 1548 1548 1547 1546 1546 1545 1545 1544 1544 1543 1543 1543 1542 1542 1542 1542
1537 1539 1541 1543 1545 1546 1547 1549 1550 1550 1551 1551 1551 1550 1550 1549 1549 1549 1549 1549 1549 1549 1548 1548 1548 1548 1548 1547 1546 1545 1545 1544 1543 1543 1542 1541 1541 1540 1540 1539 1539 1539 1538
1533 1536 1538 1540 1542 1543 1545 1546 1547 1548 1548 1548 1548 1548 1548 1548 1548 1548 1548 1548 1548 1547 1547 1547 1547 1546 1546 1545 1545 1544 1543 1542 1541 1540 1539 1539 1538 1537 1537 1536 1535 1535 1535
1529 1531 1533 1536 1538 1540 1541 1543 1544 1545 1545 1546 1546 1546 1546 1546 1546 1546 1546 1546 1546 1546 1546 1545 1545 1545 1544 1544 1543 1542 1541 1540 1539 1538 1537 1536 1535 1534 1533 1533 1532 1531 1531
1525 1527 1529 1532 1534 1536 1538 1539 1541 1542 1542 1543 1543 1543 1543 1543 1544 1544 1544 1544 1544 1544 1544 1543 1543 1542 1542 1542 1541 1540 1538 1537 1536 1535 1534 1533 1532 1531 1530 1530 1529 1528 1527
1520 1522 1525 1527 1529 1531 1533 1535 1537 1538 1539 1540 1540 1541 1541 1541 1541 1541 1541 1542 1542 1542 1542 1541 1541 1540 1539 1539 1538 1537 1536 1534 1533 1532 1531 1530 1529 1528 1527 1526 1525 1524 1523
1515 1517 1519 1522 1524 1526 1528 1531 1533 1534 1535 1536 1537 1538 1538 1538 1538 1539 1539 1539 1539 1539 1539 1539 1538 1537 1536 1535 1534 1533 1532 1531 1529 1528 1527 1526 1525 1524 1523 1522 1521 1520 1519
1509 1511 1514 1516 1518 1520 1523 1525 1527 1529 1531 1532 1533 1534 1534 1536 1534 1535 1535 1536 1536 1536 1536 1535 1534 1533 1532 1531 1530 1529 1528 1526 1525 1524 1523 1522 1521 1520 1519 1518 1516 1515 1514
1501 1505 1507 1510 1512 1514 1516 1518 1521 1523 1525 1527 1529 1530 1530 1529 1530 1531 1531 1532 1532 1532 1532 1531 1530 1529 1528 1527 1525 1524 1522 1521 1520 1519 1518 1518 1517 1515 1514 1512 1511 1509 1508
1494 1497 1500 1503 1505 1508 1510 1512 1515 1517 1520 1521 1523 1524 1526 1526 1527 1527 1528 1528 1528 1528 1528 1527 1526 1525 1524 1523 1521 1519 1517 1516 1515 1514 1512 1511 1510 1509 1507 1506 1504 1502 1501
1486 1489 1492 1495 1498 1500 1503 1505 1508 1511 1513 1515 1517 1518 1520 1521 1522 1523 1523 1523 1523 1523 1523 1522 1522 1521 1520 1518 1516 1514 1512 1510 1509 1507 1506 1504 1503 1501 1500 1498 1496 1494 1493
1476 1480 1484 1487 1490 1493 1495 1498 1501 1504 1506 1509 1511 1513 1514 1516 1516 1518 1518 1518 1519 1519 1518 1518 1517 1516 1515 1513 1511 1508 1506 1504 1502 1500 1498 1496 1494 1492 1490 1488 1487 1485 1484
1467 1470 1474 1478 1481 1485 1488 1491 1494 1497 1500 1502 1505 1507 1509 1510 1512 1513 1514 1514 1514 1514 1514 1514 1512 1511 1509 1507 1505 1502 1500 1497 1495 1492 1490 1488 1485 1483 1481 1478 1477 1476 1474
1459 1462 1466 1469 1473 1477 1480 1484 1487 1491 1493 1496 1499 1501 1503 1505 1507 1507 1509 1509 1509 1509 1508 1508 1507 1505 1503 1501 1498 1495 1492 1489 1487 1484 1482 1479 1476 1474 1471 1469 1468 1466 1465
1451 1454 1457 1461 1465 1468 1472 1476 1480 1483 1487 1490 1493 1496 1498 1500 1502 1503 1504 1504 1506 1504 1503 1502 1502 1499 1497 1494 1491 1487 1484 1481 1478 1476 1473 1470 1468 1465 1463 1461 1459 1458 1456
1444 1446 1449 1453 1457 1461 1465 1469 1473 1477 1480 1483 1487 1490 1493 1495 1497 1498 1499 1499 1500 1500 1498 1497 1496 1495 1492 1488 1485 1480 1477 1473 1470 1467 1465 1462 1459 1457 1455 1453 1451 1449 1447
1436 1439 1442 1446 1450 1454 1459 1463 1467 1470 1474 1478 1482 1485 1488 1490 1492 1493 1494 1494 1495 1494 1492 1491 1490 1488 1485 1482 1478 1474 1470 1466 1463 1460 1457 1454 1451 1449 1447 1445 1442 1440 1438
1431 1434 1437 1441 1445 1449 1453 1457 1461 1465 1470 1474 1478 1481 1483 1485 1487 1488 1489 1489 1489 1488 1486 1483 1481 1480 1478 1475 1470 1466 1462 1459 1456 1453 1450 1447 1444 1442 1439 1437 1434 1432 1430
1427 1429 1433 1437 1441 1445 1448 1452 1457 1462 1466 1471 1474 1476 1478 1481 1482 1483 1483 1483 1483 1482 1480 1476 1473 1472 1470 1467 1462 1458 1455 1451 1448 1445 1442 1439 1437 1434 1432 1429 1426 1423 1420
1423 1426 1430 1434 1437 1441 1445 1450 1455 1460 1464 1467 1471 1473 1475 1476 1477 1478 1478 1477 1477 1476 1474 1470 1468 1465 1462 1459 1455 1450 1445 1443 1440 1437 1435 1432 1429 1427 1424 1421 1417 1414 1411
1421 1424 1427 1431 1435 1440 1445 1449 1454 1458 1462 1465 1468 1470 1471 1472 1472 1472 1473 1472 1471 1469 1467 1464 1462 1459 1455 1452 1449 1444 1439 1434 1431 1429 1425 1423 1420 1417 1415 1412 1408 1405 1401
1419 1423 1426 1431 1435 1440 1445 1450 1454 1457 1460 1463 1465 1466 1466 1467 1468 1468 1468 1467 1466 1464 1461 1458 1456 1453 1449 1446 1443 1438 1434 1428 1423 1421 1417 1413 1412 1407 1405 1402 1399 1395 1392
1420 1424 1428 1433 1437 1442 1446 1450 1454 1456 1458 1460 1461 1462 1462 1463 1464 1463 1462 1461 1460 1458 1456 1454 1450 1446 1443 1440 1437 1432 1429 1424 1419 1415 1411 1403 1402 1398 1396 1392 1389 1386 1382
1424 1428 1432 1436 1440 1444 1447 1450 1453 1455 1456 1457 1459 1459 1460 1460 1459 1457 1456 1454 1453 1451 1449 1446 1443 1440 1437 1434 1431 1428 1423 1417 1412 1409 1406 1397 1392 1389 1385 1381 1379 1376 1373
1428 1433 1436 1440 1442 1445 1448 1450 1451 1452 1454 1455 1456 1456 1456 1455 1454 1452 1451 1449 1446 1444 1443 1440 1437 1435 1432 1429 1426 1421 1416 1410 1404 1400 1399 1392 1384 1378 1372 1369 1368 1365 1362
1434 1437 1440 1442 1444 1446 1448 1449 1450 1451 1452 1453 1453 1453 1452 1450 1449 1447 1446 1443 1440 1438 1435 1432 1431 1429 1426 1423 1420 1416 1411 1405 1399 1392 1389 1386 1378 1373 1361 1355 1355 1354 1351